EHI
0 0 0 0 0 0 0 0 0 0 0 0 0 1 3 7 10 14 18 20 20 22 26 28 29 32 35 39 43 48 50 44 39 34 29 26 24 21 18 14 9 5 5 6
0 0 0 0 0 0 0 0 0 0 0 0 0 1 3 6 9 12 15 19 22 26 28 28 30 33 34 34 37 43 44 41 38 33 30 28 25 21 16 11 8 7 7 8
0 0 0 0 0 0 0 0 0 0 0 0 1 1 1 4 7 9 13 19 25 27 26 26 28 32 33 31 31 33 35 37 36 33 32 30 26 21 14 9 8 9 9 8
0 0 0 0 0 0 0 0 0 0 0 0 0 0 1 3 6 7 11 18 24 25 24 25 27 29 30 30 28 26 30 34 34 32 31 29 25 19 14 11 10 9 8 8
0 0 0 0 0 1 0 0 0 0 0 0 0 0 1 2 4 6 11 19 23 23 23 26 29 28 27 27 26 25 27 29 29 27 27 26 22 18 14 13 11 8 7 7
0 0 0 0 0 0 0 0 0 0 0 0 0 0 1 1 4 8 14 20 23 22 22 25 29 28 26 25 25 25 25 25 24 23 23 21 18 15 13 12 10 8 7 7
0 0 0 0 0 0 0 0 0 0 0 0 0 1 2 3 6 12 16 19 22 21 19 21 25 28 27 26 25 24 24 23 22 20 19 16 14 12 11 9 8 8 8 8
0 0 0 0 0 0 0 0 0 0 0 0 0 1 2 4 7 12 16 17 19 18 17 18 21 25 27 27 26 24 23 22 20 18 15 11 10 10 9 7 7 8 9 8
0 0 0 0 0 0 0 0 0 0 0 0 0 1 1 2 5 10 14 15 15 16 17 17 18 21 23 23 24 23 21 19 17 15 12 9 8 9 8 6 6 8 8 7
0 0 0 0 0 0 0 0 0 0 0 0 0 1 1 1 3 8 11 11 12 15 16 16 17 18 18 18 19 19 18 17 14 11 8 6 6 7 7 6 5 6 6 5
0 0 0 0 0 0 0 0 0 0 0 0 0 0 0 1 3 8 9 8 10 13 14 13 13 15 15 15 15 16 15 14 12 9 6 5 5 5 6 6 5 5 5 4
0 0 0 0 0 0 0 0 0 0 0 0 0 0 0 2 5 8 8 7 9 12 12 10 10 11 13 14 15 14 13 12 10 8 6 5 5 6 6 6 5 4 3 2
0 0 0 0 0 0 0 0 0 0 0 0 0 0 1 4 8 9 7 7 9 10 10 9 9 10 11 13 14 13 12 9 7 7 7 6 5 6 6 6 6 5 2 1
0 0 0 0 0 0 0 0 0 0 0 0 0 0 1 4 8 9 8 10 11 11 10 8 8 8 9 11 11 10 9 6 5 5 5 5 4 4 4 4 4 4 2 2
0 0 0 0 0 0 0 0 0 0 0 0 0 0 1 4 7 8 10 12 12 11 10 8 7 7 8 8 8 8 6 4 4 4 4 3 3 3 3 2 1 1 1 1
1 0 0 0 0 0 0 0 0 0 0 0 0 1 2 5 7 10 13 13 11 10 10 8 7 6 6 6 6 6 5 5 4 4 4 3 3 4 3 1 0 0 0 1
1 1 0 0 0 0 0 0 0 0 1 0 1 2 4 6 9 12 14 13 11 10 9 7 6 6 5 4 4 4 5 5 5 4 4 3 3 5 5 3 1 0 0 1
1 1 0 0 0 0 0 0 0 0 1 1 1 3 5 6 9 11 12 12 10 9 7 6 4 4 4 3 4 5 6 6 5 3 2 1 2 4 4 4 2 1 0 1
0 0 0 0 0 0 0 0 0 0 0 1 2 4 5 6 8 8 8 8 7 6 6 5 4 3 3 3 4 7 7 6 4 2 0 0 1 2 3 3 3 2 1 0
0 0 0 0 0 0 0 0 0 0 0 1 2 3 4 5 6 6 6 6 6 6 7 6 4 3 4 3 4 6 5 4 3 1 0 0 0 1 1 2 3 3 2 1
0 0 0 0 0 0 0 0 0 0 0 1 2 3 3 2 3 4 7 8 8 10 10 7 4 4 5 4 4 4 4 3 1 0 0 0 0 0 0 1 2 3 3 3
0 0 0 0 0 0 0 0 0 0 1 2 3 3 2 1 2 6 10 11 10 11 10 6 3 4 5 5 4 4 3 2 1 0 0 0 0 0 0 0 1 2 3 3
0 0 0 0 0 0 0 0 0 1 3 3 3 2 1 2 5 9 12 13 10 9 8 5 3 3 4 4 4 3 3 2 1 0 0 0 0 0 0 1 1 1 3 3
0 0 0 0 1 1 1 1 2 3 5 4 2 1 2 4 7 9 12 12 10 8 6 3 3 3 3 3 3 3 3 1 0 0 0 0 0 0 0 1 1 1 2 3
1 0 0 0 0 1 2 4 5 6 6 4 2 1 3 5 6 7 8 8 7 6 4 3 3 3 3 3 3 3 2 1 0 0 1 1 0 0 0 1 1 0 1 2
1 1 0 0 0 0 2 5 6 6 6 4 3 2 3 4 4 5 5 5 5 4 4 3 3 3 2 3 3 3 1 0 0 1 2 2 1 1 1 0 0 0 0 1
Wind_Speed
2 4 4 7 7 7 4 3 6 8 6 1 3 6 7 5 7 8 8 8 9 8 8 8 8 8 8 6 6 6 6 5 4 3 3 2 1 1 1 1 1 2 1 2
2 5 10 7 4 4 4 5 7 7 4 1 2 4 3 3 5 8 10 9 9 7 5 7 8 8 8 7 6 5 6 5 5 3 3 2 2 1 1 0 1 1 1 2
7 8 6 6 5 5 6 6 6 6 5 3 2 5 5 3 0 2 5 7 8 11 10 9 9 8 8 7 6 6 5 5 4 4 3 2 2 2 1 1 1 1 1 2
6 8 5 5 8 7 7 8 6 4 1 3 1 2 7 4 1 2 3 4 6 7 7 8 8 8 8 8 6 5 5 5 4 4 4 4 3 2 1 1 0 0 1 1
7 5 6 7 10 7 9 7 3 2 2 1 2 2 7 2 2 4 4 5 6 6 7 7 7 7 7 6 6 5 5 4 4 3 4 4 3 2 1 1 2 1 1 1
8 6 5 7 7 6 4 2 4 5 4 1 4 3 6 4 5 4 3 5 6 6 6 5 4 4 4 4 4 5 6 4 4 3 3 4 4 3 3 2 1 1 1 1
6 7 5 3 1 2 4 6 4 5 4 5 3 2 7 5 4 6 7 6 7 6 5 6 6 5 4 5 5 4 5 4 4 4 3 4 4 4 3 2 2 1 0 0
3 6 5 3 5 5 4 9 8 5 5 5 2 3 6 5 1 2 5 7 8 8 6 6 7 7 6 5 4 4 5 5 4 3 2 2 3 3 2 2 2 2 1 1
5 6 5 3 4 7 4 4 8 7 2 1 3 3 4 3 2 3 4 5 7 8 7 6 6 6 6 6 5 5 5 4 4 4 3 2 2 3 3 2 2 2 1 1
6 4 5 3 1 1 6 6 5 5 4 2 4 3 3 3 3 3 5 6 7 6 6 6 6 6 6 5 5 4 5 5 4 5 4 3 3 3 3 2 2 2 1 1
4 3 5 2 2 3 1 3 4 4 5 6 3 6 5 7 6 5 5 5 7 7 7 6 5 5 5 4 4 4 4 4 4 4 3 3 3 3 3 2 2 2 2 2
3 5 2 5 5 4 5 5 6 5 3 4 4 6 3 2 3 4 5 5 6 7 6 6 6 5 4 4 3 4 4 4 4 4 3 3 3 3 3 2 2 2 2 2
4 6 1 6 6 4 1 1 3 5 4 4 4 6 2 2 1 2 4 5 6 6 6 5 4 4 4 4 4 4 4 4 4 4 4 3 3 3 3 3 2 2 2 2
6 5 7 8 7 3 2 2 2 4 4 4 5 4 2 0 1 1 3 5 6 6 6 5 4 3 3 3 3 4 4 3 4 4 4 3 3 4 4 3 2 2 2 2
6 4 3 3 3 2 2 3 2 3 5 6 6 6 6 6 5 4 5 6 5 5 5 5 4 3 2 3 3 3 3 3 4 3 3 3 3 2 2 2 2 2 2 2
4 4 2 0 0 1 2 3 2 1 2 4 4 3 4 4 4 4 5 6 6 5 5 5 5 4 3 3 3 3 3 3 4 4 3 3 2 2 2 2 2 2 2 2
2 4 3 2 2 2 3 3 2 1 0 4 4 5 3 4 4 6 6 6 6 5 4 4 5 5 4 3 3 3 3 3 4 3 3 3 3 3 3 3 3 3 2 2
5 4 3 1 2 2 6 2 2 3 0 2 4 3 4 4 3 4 6 7 6 5 4 3 3 3 2 1 2 2 2 3 3 3 3 3 3 3 3 3 3 3 3 3
6 6 4 3 2 3 4 3 1 3 1 1 4 4 3 4 5 2 1 4 6 5 5 4 3 3 2 2 2 2 1 2 3 3 3 3 4 4 3 3 4 3 3 2
4 5 5 4 3 4 6 4 1 5 1 2 3 5 5 4 3 3 2 3 3 4 3 3 3 3 2 2 2 2 2 2 2 3 3 3 3 4 4 4 4 3 3 3
3 3 3 3 3 5 5 3 2 3 6 3 3 4 4 3 5 4 4 3 3 4 3 3 3 2 2 2 3 2 1 2 3 2 2 2 2 3 4 3 3 2 2 2
3 3 3 3 3 7 4 2 2 5 3 2 3 4 3 3 3 4 4 4 4 4 3 3 3 1 1 2 3 2 1 2 1 1 2 2 2 2 2 3 2 2 3 2
2 4 4 5 6 5 2 2 2 3 3 2 3 4 5 4 4 4 4 4 3 3 3 2 3 1 1 2 3 3 2 1 1 1 2 2 2 1 1 2 3 2 2 2
1 1 3 1 2 1 1 1 2 2 2 2 4 4 5 5 4 4 4 3 3 2 2 2 2 1 1 1 2 2 2 1 1 2 2 2 2 1 0 1 2 2 2 2
3 1 2 1 2 2 2 1 1 2 3 4 4 4 5 5 4 3 3 3 3 3 2 2 2 2 2 2 2 2 1 1 1 1 1 2 2 2 1 0 0 2 2 4
3 4 5 5 5 4 4 3 1 2 3 3 4 4 4 5 5 3 2 2 2 3 2 3 2 2 1 1 2 2 2 2 1 1 1 1 1 2 2 1 1 2 2 3
Wind_Direction
197 112 209 223 202 199 226 263 274 271 277 288 229 235 234 207 175 176 173 171 169 179 172 154 150 147 140 137 141 151 146 151 146 144 146 142 154 159 151 154 145 146 149 136
36 232 223 216 221 209 238 263 277 286 286 225 227 257 258 212 190 183 175 173 166 153 144 152 154 150 151 152 151 152 153 150 152 158 156 148 144 144 151 133 78 120 124 124
200 235 217 210 231 229 244 219 236 256 309 358 60 334 312 298 195 163 171 171 164 163 164 168 164 158 156 156 163 158 154 144 144 135 115 98 77 60 52 39 26 5 99 117
233 241 233 218 226 205 243 235 221 232 221 282 123 250 286 269 267 210 190 165 163 163 160 165 162 162 162 166 162 146 143 135 133 130 133 136 137 147 184 159 146 5 48 93
245 225 210 221 229 210 221 229 207 206 174 294 308 162 278 281 229 224 192 164 155 155 149 156 160 166 165 158 153 146 140 135 134 137 142 145 138 147 131 103 86 61 19 34
247 250 209 216 236 215 202 53 25 40 67 305 256 181 271 251 220 202 169 149 144 143 142 140 132 132 146 142 143 151 146 139 137 143 142 143 141 136 118 103 103 68 16 15
287 281 255 214 237 296 108 91 34 360 7 256 265 173 248 256 228 184 165 146 143 144 144 146 150 147 148 145 149 153 147 150 153 147 145 145 144 140 142 146 142 137 93 350
225 276 257 213 180 192 186 142 157 191 220 268 313 223 258 285 312 141 137 135 138 141 148 155 158 154 154 150 144 150 160 160 160 151 145 145 146 142 140 148 155 164 184 211
188 250 266 238 195 158 166 173 170 147 179 253 276 267 308 339 11 117 136 135 144 154 153 154 148 147 151 153 156 156 158 155 159 159 152 166 157 148 149 154 149 164 182 187
170 232 274 274 62 98 158 159 107 126 158 224 268 246 228 255 239 193 166 158 159 153 146 145 150 154 154 160 161 149 154 163 162 158 173 179 169 159 148 139 145 156 156 142
157 177 289 324 194 202 115 107 118 137 154 161 216 258 225 208 200 190 182 162 154 151 150 154 153 147 144 145 148 151 150 144 148 153 163 171 170 160 146 147 164 166 154 139
166 133 245 263 261 200 167 168 146 153 217 171 175 258 291 190 195 172 156 141 144 143 146 149 144 134 133 141 150 153 152 152 162 156 157 174 173 154 151 166 182 171 165 160
140 117 76 332 331 355 79 156 150 141 136 161 177 253 327 67 91 123 135 132 133 136 138 132 128 134 145 154 158 156 156 161 157 145 148 160 168 172 177 185 184 172 158 144
122 122 160 199 225 239 280 282 184 134 157 194 198 211 273 167 136 124 135 139 133 138 135 126 125 135 154 160 160 159 164 161 151 148 152 161 178 187 189 186 176 165 153 146
106 138 182 213 225 227 269 278 246 185 183 184 200 194 216 202 181 171 153 138 130 131 140 145 147 151 160 156 156 161 167 162 157 157 168 183 186 174 174 168 162 149 147 153
82 129 132 274 291 351 316 296 262 231 170 169 161 218 219 181 170 158 150 141 143 151 155 151 147 150 162 166 168 166 171 168 152 156 172 176 163 156 165 173 161 148 147 152
87 114 115 233 286 12 289 266 204 147 161 158 179 216 161 131 156 165 160 151 156 161 162 161 161 163 168 172 163 170 184 163 151 163 175 172 168 173 184 179 165 174 184 169
141 118 128 155 73 220 245 262 135 133 210 155 153 161 149 146 145 151 156 157 163 160 160 163 158 155 160 155 157 158 157 156 159 169 179 182 178 184 183 175 180 189 187 185
149 139 124 125 168 255 276 278 169 138 314 239 150 149 131 117 86 54 145 157 165 165 166 169 162 153 149 142 136 123 131 152 163 181 193 193 183 182 184 189 194 195 184 194
86 111 122 134 158 225 246 262 172 108 269 290 140 152 163 122 115 227 212 150 142 141 147 144 127 116 136 167 137 120 153 160 196 204 199 193 182 179 189 193 192 189 183 198
51 67 122 154 187 256 261 276 82 156 224 227 163 164 164 169 190 191 159 145 141 125 128 132 127 128 163 175 135 130 164 202 219 210 178 176 181 183 181 180 181 178 182 178
168 153 168 145 179 243 283 51 155 215 221 182 156 155 141 140 129 127 135 139 131 118 113 122 126 140 190 163 139 143 217 238 223 179 162 169 175 189 167 165 176 176 176 179
168 177 175 177 208 236 240 178 200 165 150 164 146 138 133 125 127 127 129 132 132 126 128 130 133 145 219 176 153 170 234 252 255 176 180 182 179 186 175 172 181 185 189 194
283 115 114 132 258 255 286 67 79 101 125 147 132 125 120 120 128 130 130 130 132 125 132 134 131 149 238 224 184 191 220 228 205 202 202 188 180 183 142 178 187 188 200 205
237 120 119 187 262 328 325 359 94 87 85 86 102 112 121 118 116 126 137 145 155 158 166 155 157 193 223 221 207 209 206 184 244 235 209 190 181 183 168 124 218 202 213 209
227 183 171 207 216 198 236 253 168 123 117 114 112 107 112 127 133 133 144 157 158 172 166 154 176 197 207 202 210 218 197 172 181 235 217 196 184 187 181 174 331 338 242 233